Location: Lane
(33.5226°N, 79.8788°W)
Time: 11:55:39
(UTC+00:00)

Explorer 7 - Pass Details

Date: 11 October 2022
Orbit: 481 x 665 km, 50.3° (Epoch: 26 November)

Event Time Altitude Azimuth Distance (km) Brightness Sun altitude
Rises 16:36:40 0° 317° (NW) 3,003 10.2 48.7°
Reaches altitude 10° 16:40:40 10° 350° (N) 2,078 9.5 48.8°
Maximum altitude 16:42:25 12° 11° (N) 1,948 9.4 48.9°
Drops below altitude 10° 16:44:10 10° 33° (NNE) 2,056 9.5 48.9°
Sets 16:48:04 0° 65° (ENE) 2,930 10.4 49.1°
